Theta_e
314 315 319 322 324 325 328 331 335 337 332 322 319 324 321 322 325 321 322 323 325 320 319 324 327 325 324 329 330 332 332 333 334 339 349 344 339 340 340 341 339 338 338 337 338 338 338 339 339 340 339 339 339 339 339 338 338 336 334 333 332 329 330 332 331 326 323 322 319 324 330 332 331 330 330 329 329 329 330 331 332 333 334 334 333 330 328 326 325 325 323 319 320 324 327 327 327
314 317 322 324 324 326 334 336 332 330 328 322 318 323 320 326 329 323 326 324 323 320 322 327 328 325 323 328 329 337 339 336 338 341 343 340 341 341 341 341 338 337 337 337 338 338 339 339 339 339 339 339 339 339 339 338 337 335 333 334 333 330 330 332 331 325 322 320 318 322 328 331 331 330 330 329 329 329 331 331 331 333 333 332 329 327 327 327 325 325 323 320 322 325 326 326 326
315 317 323 324 326 327 335 336 327 324 325 321 316 320 322 327 328 323 324 322 323 323 325 326 328 325 323 326 326 338 340 336 340 341 339 340 342 341 341 339 338 338 337 338 338 338 339 338 338 338 339 339 339 339 338 338 336 334 333 334 333 330 330 332 330 325 322 319 317 322 329 330 330 330 329 329 329 330 331 331 332 333 334 332 329 328 327 327 324 324 325 324 325 325 325 325 325
316 320 325 324 333 335 336 333 329 328 322 319 316 318 325 326 325 322 322 322 324 326 323 323 327 324 323 325 326 335 337 336 340 339 340 340 341 342 341 340 340 339 337 338 338 338 338 338 338 338 339 339 339 339 338 338 335 332 333 333 333 331 330 331 330 326 322 319 316 322 330 330 329 330 329 329 329 331 333 332 333 333 333 332 330 329 328 325 323 323 325 326 326 325 325 325 325
320 323 325 323 337 337 332 331 333 329 318 323 321 318 325 323 323 321 321 322 323 325 322 323 326 322 324 326 328 336 336 337 338 338 340 339 341 342 341 341 340 340 338 337 338 338 338 338 338 338 338 338 338 338 338 338 334 331 332 334 333 332 331 331 330 326 322 319 316 319 328 331 330 330 329 328 329 331 332 333 333 332 332 331 330 330 327 325 325 324 325 327 325 325 325 325 325
323 324 324 323 331 328 329 328 325 322 316 327 324 318 324 320 321 321 320 322 322 324 322 322 322 323 327 327 330 334 334 337 338 338 339 339 340 340 341 341 340 340 339 338 339 338 338 338 337 338 338 338 338 338 338 337 334 330 332 334 333 333 332 332 331 327 323 319 316 316 323 330 330 329 329 328 330 331 332 332 331 330 331 332 331 329 326 325 326 326 326 328 325 325 325 325 325
323 325 328 329 331 325 331 328 320 322 318 323 322 320 323 319 320 321 321 321 320 320 321 321 320 324 326 329 333 333 334 337 338 338 338 338 338 340 341 341 341 341 340 339 339 338 338 338 337 337 337 337 336 337 338 337 334 330 332 334 333 334 332 332 331 327 324 320 315 315 321 327 330 329 329 329 330 331 332 331 328 329 333 333 331 327 325 325 326 326 327 328 326 325 325 325 326
323 326 333 334 333 329 330 327 323 327 321 319 321 321 322 320 321 321 322 321 320 319 319 320 321 322 322 331 336 333 336 338 338 338 338 338 338 340 341 341 341 341 341 340 340 339 337 337 338 338 338 337 335 336 337 337 335 331 332 333 333 334 333 332 331 328 325 320 315 314 320 325 329 329 329 329 329 330 331 331 330 330 333 331 329 326 321 323 325 326 327 326 325 324 325 326 327
322 325 332 329 328 330 327 322 321 322 321 320 320 321 322 321 322 321 321 320 319 320 319 320 322 320 321 332 333 332 337 338 338 338 338 338 339 340 341 341 341 341 341 341 341 339 337 338 338 338 338 338 336 335 335 337 334 331 331 331 333 333 333 332 331 329 326 321 315 313 317 322 327 329 329 328 327 329 331 331 331 332 332 329 329 325 319 322 325 326 326 324 324 325 326 328 328
324 324 330 330 328 327 321 319 321 320 320 322 320 321 322 320 321 320 320 318 319 321 319 320 320 318 324 332 331 332 336 337 338 338 338 339 339 340 340 341 341 341 341 341 342 338 337 338 338 338 338 338 337 332 332 335 333 331 330 331 332 333 334 332 331 329 326 322 316 312 315 319 325 329 328 327 327 329 330 330 331 331 329 328 327 321 318 324 326 326 326 324 325 326 326 327 327
327 324 330 333 327 321 318 320 321 320 319 320 320 319 321 320 320 318 318 317 320 323 319 319 318 319 327 330 330 332 335 337 338 337 338 338 339 340 340 341 341 341 341 341 341 338 336 338 338 338 338 337 337 330 327 332 332 330 330 331 333 333 333 332 332 330 327 324 317 314 317 320 324 328 329 328 328 328 329 330 330 329 328 327 323 318 319 324 325 325 325 324 325 324 324 324 325
331 330 331 326 324 320 321 323 320 321 319 319 319 318 320 320 319 318 318 317 320 323 319 320 319 319 326 329 329 331 335 336 336 337 336 337 339 339 339 340 341 341 341 341 341 337 335 337 337 337 338 337 338 331 326 331 330 329 330 331 333 332 333 332 331 330 328 326 319 315 317 320 322 326 328 328 328 327 327 328 328 327 327 325 321 320 322 322 323 324 323 324 323 322 322 322 323
332 333 329 323 331 327 322 324 322 322 319 321 320 318 320 319 320 319 318 317 319 322 318 320 318 320 327 328 328 330 334 335 335 336 335 337 338 338 340 340 341 341 341 341 341 337 334 337 337 337 337 337 338 332 326 330 330 329 331 331 333 332 332 332 331 330 329 327 323 317 314 315 317 321 325 327 327 326 326 326 327 326 325 325 323 323 323 321 322 322 321 322 322 322 322 322 322
329 336 332 327 334 329 324 323 323 324 318 321 320 318 320 318 320 319 319 318 318 320 318 318 317 323 327 327 331 329 331 334 336 336 335 337 337 338 340 341 341 341 342 342 341 338 335 336 337 337 338 337 338 334 327 327 330 331 332 332 333 332 332 332 331 331 329 328 325 321 315 311 311 316 320 323 324 322 322 324 325 324 324 324 323 323 322 322 322 321 321 322 322 321 321 321 321
327 337 333 327 329 326 325 320 324 328 318 320 319 318 320 316 318 318 319 320 318 318 317 316 316 320 323 329 333 328 330 335 336 336 336 337 337 339 340 341 342 341 342 342 342 340 337 336 337 337 337 337 337 337 331 326 329 332 333 333 333 332 332 332 331 331 330 328 326 324 319 314 311 311 313 316 317 317 318 320 321 322 323 323 322 321 320 321 322 322 321 321 321 321 320 320 320
329 338 331 323 325 323 322 319 324 326 318 320 319 318 319 316 317 318 316 319 319 316 316 316 316 317 325 337 333 326 332 335 335 336 336 337 338 340 340 341 341 342 342 342 342 342 339 337 336 337 337 338 337 337 336 331 330 332 333 334 333 333 333 332 331 331 330 329 327 325 322 319 314 311 310 312 313 314 313 313 314 317 320 321 321 320 319 320 321 322 322 321 320 320 320 320 320
331 341 332 322 325 323 320 322 325 323 320 321 317 317 319 316 317 316 314 317 319 317 317 316 316 321 332 339 331 328 335 334 333 336 335 337 338 340 341 341 342 342 342 342 342 342 341 339 337 337 337 337 337 337 337 336 334 333 334 335 335 334 334 333 332 331 331 330 328 325 323 320 317 313 312 312 312 311 308 306 306 309 312 316 318 318 318 320 321 322 322 320 319 319 319 320 320
331 334 328 324 325 321 319 321 323 323 320 318 318 318 319 317 317 315 315 316 317 317 317 317 319 325 331 332 331 333 334 333 333 335 335 335 336 338 340 341 341 342 342 342 342 341 341 341 339 338 338 337 337 337 337 337 337 335 334 335 336 335 334 333 332 331 331 330 328 326 324 321 319 317 314 314 312 309 305 302 302 303 304 307 311 313 315 319 320 321 320 318 319 319 319 319 320
330 328 324 330 328 316 317 318 319 322 320 318 318 318 318 318 317 315 315 316 316 316 316 318 321 326 332 331 331 334 332 333 333 333 334 334 334 336 338 340 340 341 341 341 341 341 341 341 340 339 339 338 338 338 337 337 337 337 336 336 336 336 335 334 333 332 331 330 329 327 325 322 321 319 316 314 312 309 304 301 301 301 301 301 303 307 314 318 319 319 318 316 317 318 319 319 319
330 332 325 330 326 317 318 318 317 319 318 318 317 316 317 317 317 315 315 316 316 317 316 319 321 324 332 332 329 332 332 332 331 331 332 331 332 333 337 338 339 340 340 341 341 341 341 340 340 340 340 339 338 338 338 338 338 337 337 336 337 336 335 334 333 332 331 330 329 328 326 324 322 321 319 316 315 311 305 302 301 300 300 300 300 305 313 318 318 317 316 314 314 317 318 317 317
324 331 331 326 322 321 319 317 319 319 317 318 318 317 317 316 316 315 316 316 315 317 315 318 321 321 329 332 328 330 330 331 330 330 330 330 331 331 335 337 337 339 339 339 340 340 340 340 340 340 340 339 339 339 338 338 338 337 338 337 337 337 335 335 334 332 332 331 329 328 326 325 323 322 320 318 317 314 308 304 302 301 301 300 301 304 311 316 316 315 314 312 311 313 315 316 316
319 322 325 321 319 322 317 318 321 319 319 319 318 317 316 315 316 316 316 317 317 318 316 318 319 318 325 330 327 327 328 329 330 329 330 330 331 331 333 335 336 337 338 338 338 338 338 339 339 340 340 339 339 339 338 338 339 338 338 338 337 337 336 335 335 333 332 331 329 328 327 327 326 322 321 320 318 316 312 308 305 304 303 302 301 303 309 314 314 313 312 311 310 310 312 315 315
320 318 318 319 321 321 316 318 319 319 321 319 318 316 316 316 316 317 317 318 319 318 320 321 317 314 320 328 327 327 328 327 328 329 330 331 331 332 331 333 335 335 336 337 337 337 337 337 337 339 340 339 339 339 338 338 338 338 338 338 337 337 336 335 335 333 332 332 329 328 328 328 328 324 321 321 320 317 315 312 310 307 306 304 302 304 308 311 311 311 311 310 310 310 311 313 314
320 317 317 318 320 319 317 318 317 319 320 318 317 316 316 318 316 317 317 319 319 317 318 318 314 312 318 326 326 326 327 327 328 329 330 331 331 331 330 331 332 333 334 335 335 335 335 336 335 337 339 338 338 338 338 338 337 338 337 337 337 337 337 336 335 334 333 332 330 329 329 328 328 327 323 322 321 318 316 315 313 310 308 306 305 306 307 308 309 310 310 310 310 310 310 312 313
316 316 317 317 317 317 317 317 317 318 318 316 317 317 318 318 317 317 318 320 320 316 316 316 314 313 319 327 327 326 326 326 327 328 329 330 331 331 331 330 331 333 333 333 334 334 334 335 334 335 338 338 337 337 338 338 337 337 337 337 337 337 337 336 336 335 334 333 331 331 331 330 329 328 326 323 321 319 317 316 315 313 311 309 306 306 308 309 310 310 310 310 310 310 310 311 312
315 316 318 317 316 316 316 316 317 317 317 317 317 318 319 317 316 318 320 321 319 317 318 319 318 317 319 325 325 324 326 326 326 327 328 329 330 331 332 332 332 333 332 332 333 333 334 334 334 334 335 337 337 337 337 337 337 337 337 337 336 337 337 337 336 336 334 333 332 331 332 331 330 329 328 325 322 320 318 316 316 314 313 310 308 309 311 312 312 311 310 309 309 309 310 311 312
316 319 319 319 317 316 317 316 316 317 317 316 317 318 319 316 316 318 321 320 317 318 319 317 319 320 318 321 322 319 322 325 325 326 327 328 329 330 331 332 332 333 332 333 333 333 333 333 334 334 333 335 336 337 337 336 337 336 336 336 336 336 336 336 336 336 335 334 333 332 332 332 331 330 329 327 324 321 319 317 316 315 314 312 312 314 315 314 314 312 310 309 308 309 310 311 312
318 319 318 318 318 317 317 317 316 317 317 316 317 318 317 317 318 319 319 319 316 318 320 317 319 320 316 318 320 317 318 321 324 325 326 326 328 329 331 331 332 333 332 333 333 333 333 333 334 334 333 333 335 337 336 336 336 336 335 336 336 336 335 335 336 336 335 335 334 333 333 332 331 330 329 328 326 323 320 319 317 316 315 315 316 316 316 315 314 312 310 309 309 309 310 310 312
319 320 319 317 316 318 318 318 318 317 317 318 316 316 317 318 319 318 319 321 318 317 320 318 319 318 317 318 318 318 316 317 321 323 325 325 325 327 330 331 332 332 332 333 333 333 334 333 333 334 333 332 335 336 336 336 335 335 334 333 334 335 336 335 335 335 335 335 335 334 334 332 331 330 328 328 327 324 322 322 319 317 317 317 317 316 316 316 314 312 310 309 309 309 309 308 309
319 318 321 319 316 320 319 317 318 317 317 319 315 313 320 322 319 317 319 322 319 318 319 318 318 319 318 317 316 318 315 313 318 321 323 324 324 325 327 329 331 331 332 332 333 333 333 334 333 333 333 333 334 334 335 335 335 334 333 331 331 333 335 336 336 335 335 335 335 335 334 333 332 330 329 328 328 326 324 323 322 320 319 318 317 317 317 315 314 313 311 310 310 309 308 306 307
319 316 322 324 318 321 321 317 318 317 316 319 315 314 321 322 318 317 319 321 320 319 320 319 319 318 318 319 317 317 315 312 315 320 321 322 322 323 323 325 329 331 331 332 333 333 333 333 333 332 332 333 332 333 333 333 333 332 332 331 330 331 333 334 335 336 335 335 335 335 335 334 332 331 329 328 327 326 324 323 323 321 320 319 318 317 317 315 313 312 312 312 309 308 307 303 304
319 317 322 324 319 322 322 317 319 318 316 317 315 317 320 319 318 318 317 318 319 320 321 320 320 319 318 319 318 317 316 312 313 317 320 321 321 322 322 322 326 330 330 330 332 333 333 332 332 332 331 332 332 331 332 332 332 331 331 331 331 331 331 332 333 335 335 335 335 335 334 334 334 332 330 329 328 327 325 324 323 322 321 319 318 318 317 315 314 312 312 313 310 306 304 301 300
323 320 322 323 319 321 322 318 319 319 318 317 315 317 321 319 318 319 318 318 319 320 321 321 321 321 320 318 318 318 317 315 314 314 317 320 321 321 321 321 323 327 329 330 330 331 332 331 331 331 331 331 330 330 331 332 331 331 330 330 332 332 331 331 332 334 334 334 335 334 334 334 334 333 331 330 329 328 327 326 324 322 321 320 320 318 317 316 314 312 310 311 312 307 301 298 297
323 319 320 324 321 319 322 320 319 319 318 318 317 317 319 320 319 319 320 320 319 320 322 323 322 321 321 321 319 319 319 320 318 314 315 317 319 320 321 321 322 323 327 329 330 330 331 330 331 330 330 330 329 329 330 331 331 330 330 329 330 331 331 331 331 331 332 333 334 333 334 334 334 334 332 331 330 330 329 328 326 324 322 321 320 318 317 315 313 313 310 307 309 307 301 297 296
325 320 319 323 320 319 323 321 317 317 317 318 319 318 319 320 318 317 318 319 319 321 322 322 323 322 322 323 322 320 319 320 317 314 315 316 317 319 320 321 323 323 325 328 330 330 330 330 330 330 330 329 329 329 330 331 330 329 330 329 329 328 329 330 330 330 330 331 333 334 334 334 334 334 332 332 331 331 330 328 327 325 323 321 320 318 316 314 312 311 310 306 304 304 302 299 296
326 326 325 325 321 318 319 318 316 317 317 319 320 318 318 318 317 315 316 317 317 318 319 319 320 320 321 322 322 321 320 320 316 313 316 317 316 317 319 321 323 324 324 327 329 331 330 330 330 330 330 329 329 329 329 330 329 329 328 328 328 327 327 328 329 329 329 329 330 333 335 334 334 334 333 332 331 331 330 329 328 326 325 322 320 318 316 315 313 310 308 306 302 299 299 297 295
323 326 324 323 321 317 317 319 318 317 316 320 322 319 318 316 315 315 314 315 316 317 318 318 318 318 318 320 320 320 320 318 314 313 315 316 317 317 317 319 321 323 323 324 327 328 328 328 328 329 329 329 328 328 328 328 328 327 326 326 326 325 326 326 327 328 329 328 328 330 333 334 334 334 333 332 331 331 331 329 329 327 324 322 321 320 317 315 313 309 306 305 303 300 296 295 295
324 325 323 322 323 318 316 318 318 316 315 320 323 318 316 315 313 314 314 315 316 317 318 318 318 318 317 319 319 318 318 316 316 316 314 314 316 316 316 317 318 321 322 322 323 324 325 326 326 327 328 328 328 327 327 327 326 326 325 325 324 324 325 325 326 327 328 328 329 330 332 333 334 334 333 333 332 331 331 329 329 328 325 323 321 319 317 314 311 309 307 303 302 300 297 295 296
327 326 323 324 325 318 317 320 318 317 316 320 324 319 315 315 314 313 314 315 315 316 317 318 317 317 317 318 318 318 318 318 320 320 316 314 315 315 316 317 317 318 319 320 322 323 324 324 325 325 326 326 326 326 326 325 325 325 324 323 323 323 324 324 325 326 327 328 328 329 330 331 332 333 333 332 332 331 331 329 329 328 327 325 322 319 315 312 310 309 310 307 302 298 297 296 296
328 326 323 325 326 319 317 319 318 317 316 317 322 321 317 317 318 318 316 314 314 314 315 317 318 318 318 318 318 319 319 319 321 324 322 315 313 315 315 316 317 317 318 319 321 322 322 323 323 323 324 324 324 324 323 323 323 322 322 321 321 321 322 322 324 324 325 326 326 327 327 327 329 331 332 332 332 331 329 329 329 329 327 326 323 321 316 312 311 309 308 308 305 300 296 295 296
326 330 328 327 326 320 319 320 320 321 321 320 321 322 323 325 325 324 320 316 315 316 317 317 319 319 319 320 319 318 319 321 322 327 329 318 313 314 315 316 316 317 318 319 320 320 321 321 322 322 322 322 322 322 321 321 320 320 320 319 318 319 319 320 321 322 323 323 323 324 324 324 324 325 327 328 329 330 330 329 330 330 328 326 323 322 320 315 312 310 308 307 308 306 300 295 295
319 325 327 324 326 325 323 325 324 323 323 323 321 319 327 333 325 319 316 315 315 317 318 319 320 321 320 321 320 319 322 326 326 328 328 318 313 314 315 315 316 316 317 317 318 319 319 319 320 320 320 320 320 320 320 319 319 318 318 318 317 317 317 318 319 320 321 321 321 321 321 321 319 319 321 323 324 326 329 330 329 329 327 325 324 323 321 315 311 310 310 308 308 310 305 297 294
316 319 324 328 334 330 326 327 321 319 321 321 320 320 324 323 315 314 315 314 316 316 316 318 319 321 323 321 320 322 326 330 329 330 327 319 313 313 314 315 315 316 316 316 317 317 318 318 319 319 319 319 319 318 318 318 318 318 318 317 317 317 316 316 317 317 318 318 319 319 319 318 318 320 323 324 324 326 328 329 329 328 325 325 324 322 319 315 312 311 310 310 309 307 305 299 295
320 322 327 333 335 328 328 329 321 321 324 325 328 325 322 320 313 314 317 316 319 319 319 320 316 316 320 321 322 325 330 333 333 334 334 324 314 312 313 314 315 316 316 316 316 316 316 317 317 318 319 318 318 318 318 317 317 317 317 317 316 316 316 315 315 315 315 315 316 316 316 316 317 320 324 325 326 327 327 327 327 326 325 325 324 322 320 316 314 311 308 308 308 305 305 304 300
324 324 328 333 333 330 335 335 328 326 323 324 331 322 318 328 325 317 317 317 319 321 321 320 316 316 318 320 324 328 334 338 338 341 339 324 313 313 314 315 315 315 315 315 315 315 315 315 316 317 318 318 318 318 317 317 317 317 317 317 316 316 315 315 315 314 314 314 314 314 314 315 316 318 321 323 324 325 325 325 325 325 325 325 323 321 320 318 316 313 310 307 306 305 306 307 305
324 325 328 333 334 333 336 335 329 324 319 322 331 322 314 326 330 320 316 317 321 324 321 317 319 324 324 325 330 333 336 337 339 344 333 316 313 316 315 315 316 315 315 314 314 314 314 315 316 316 317 317 317 317 317 317 317 317 316 316 316 315 314 314 314 314 314 314 313 313 313 314 316 317 319 320 322 323 323 323 323 324 324 323 323 321 318 317 316 314 312 310 308 307 306 306 306
324 330 331 331 335 337 336 335 326 317 319 325 330 325 315 319 330 326 317 318 322 323 320 319 324 329 329 331 335 337 338 335 334 336 324 311 313 316 315 315 315 315 315 314 313 313 313 314 315 316 316 317 317 317 317 317 316 316 316 316 315 314 314 313 313 313 313 314 313 313 313 313 315 317 318 319 320 321 321 322 322 322 323 322 322 321 319 318 316 314 313 311 309 307 307 305 305
329 333 331 324 331 338 334 332 324 315 321 327 327 326 317 317 327 324 318 321 321 318 319 323 327 329 329 332 336 339 342 337 331 331 325 315 314 314 313 315 314 314 314 313 313 313 312 313 314 315 316 316 316 316 316 316 316 316 315 315 314 314 314 313 313 313 313 313 313 312 312 313 314 315 316 317 318 319 319 320 320 320 320 320 319 318 317 317 316 316 314 311 309 307 306 304 303
330 326 324 317 320 327 326 327 326 321 322 322 322 324 319 318 322 319 320 324 321 317 320 327 329 328 331 336 340 341 341 338 334 331 328 324 318 311 310 313 313 314 314 313 313 313 313 313 314 315 315 315 316 316 316 315 315 315 315 314 314 313 313 313 312 312 312 312 312 312 312 312 313 314 315 316 317 318 318 318 318 318 317 317 318 317 317 317 316 316 314 312 309 306 304 303 302
325 320 321 319 319 320 320 322 322 323 324 321 319 320 321 322 321 319 322 320 319 318 321 330 332 332 337 343 346 344 339 338 337 332 330 328 317 308 309 311 312 313 313 313 313 313 313 314 314 315 315 315 315 315 315 315 314 314 314 314 313 313 313 312 312 311 311 312 312 313 313 313 313 314 314 316 317 317 318 319 318 318 317 317 317 317 317 317 317 316 314 311 308 306 305 304 303
322 322 321 320 324 324 324 323 321 324 327 322 317 318 324 325 319 320 321 319 321 320 320 325 327 331 337 338 339 338 337 337 336 334 335 327 312 307 309 310 310 312 312 312 313 313 313 313 314 314 314 314 315 314 314 314 314 314 313 313 313 312 312 311 311 311 311 312 313 313 313 313 313 314 314 315 317 318 319 319 319 318 318 317 317 317 316 317 316 314 312 310 309 307 305 305 304
319 323 320 319 325 324 323 326 326 325 324 321 320 324 328 323 318 320 320 319 320 317 317 319 320 326 327 327 329 331 335 338 334 334 339 327 310 308 309 308 309 311 311 312 312 312 313 313 313 313 314 314 314 314 314 314 313 313 313 312 312 312 311 311 311 311 312 313 313 313 312 312 312 313 314 315 316 317 317 318 318 318 318 316 316 316 315 315 315 313 312 310 309 308 306 305 304
318 321 319 323 326 321 320 322 320 318 317 318 320 323 322 317 316 317 315 316 316 314 316 317 317 321 321 324 331 332 333 336 336 336 338 327 312 309 311 309 310 310 310 311 311 312 312 312 313 313 313 313 313 313 313 313 313 312 312 312 311 311 311 311 311 310 312 313 313 312 312 311 312 312 312 313 314 315 315 316 317 317 317 315 315 314 314 313 313 312 312 311 311 310 308 306 305
321 322 320 321 322 323 326 324 320 317 316 319 319 317 316 314 315 317 315 314 314 316 319 319 319 320 320 327 334 335 334 333 336 336 333 323 311 309 313 311 311 311 310 311 311 311 312 311 312 312 312 313 312 313 313 313 313 312 312 311 311 311 310 310 310 310 311 311 312 312 311 311 312 311 311 312 313 314 314 315 316 316 316 314 313 313 312 311 311 311 311 312 312 311 308 306 305
323 325 321 322 325 326 326 322 321 319 317 321 322 316 315 314 314 314 314 315 316 318 319 319 322 323 322 328 336 345 344 337 337 340 342 332 313 310 314 313 313 313 311 312 311 311 311 311 312 312 311 312 311 312 312 312 312 312 311 311 310 310 309 309 310 310 310 311 311 311 311 311 311 311 311 312 313 313 313 313 314 314 314 313 312 311 310 309 308 309 310 311 311 309 308 306 305
323 321 317 322 328 328 325 321 321 321 318 319 319 315 314 315 315 314 315 318 317 316 319 320 322 323 323 325 334 349 349 343 344 344 349 339 315 311 316 314 314 314 312 312 311 311 311 311 311 311 311 311 311 312 312 312 312 311 311 310 310 309 309 309 309 309 310 310 310 310 310 310 311 311 311 311 312 312 312 312 312 313 312 311 311 310 308 307 306 307 308 309 309 308 306 305 304
322 320 318 320 320 322 324 322 321 322 321 319 315 314 314 313 314 316 317 318 317 318 321 321 320 321 320 319 328 343 343 344 350 347 347 335 314 312 317 314 313 314 312 312 311 310 311 310 311 311 311 311 311 311 311 311 311 311 311 310 309 309 308 308 308 308 309 309 310 310 309 310 310 310 311 311 311 312 311 312 311 311 311 311 310 309 308 306 305 306 306 307 308 307 306 305 304
320 319 320 319 318 320 321 320 320 319 322 324 319 314 313 312 314 317 317 318 320 323 321 318 322 324 322 322 333 341 335 336 344 345 346 333 315 312 315 312 312 312 310 311 311 311 311 310 311 311 311 311 311 311 311 311 311 311 311 310 309 309 308 308 308 308 308 309 309 309 309 309 309 309 310 310 311 311 311 311 311 311 311 310 309 308 306 305 304 305 305 306 306 306 305 304 303
Wind_Speed
6 4 2 5 7 7 5 3 3 3 3 2 2 1 1 2 3 3 3 3 3 1 0 4 3 3 5 6 9 7 3 0 2 3 2 5 17 20 16 18 18 17 18 18 16 15 15 14 13 12 12 11 12 13 14 14 14 13 12 13 12 12 12 13 13 14 16 17 17 18 18 18 17 17 18 18 18 18 17 16 14 15 16 16 16 16 17 17 18 20 21 25 27 28 29 28 27
5 4 2 5 4 4 2 2 3 2 4 3 2 2 2 2 5 4 4 3 3 3 2 5 5 6 8 9 8 7 5 4 2 3 3 14 21 17 19 21 19 18 19 18 17 16 15 15 14 13 12 12 12 13 14 14 14 13 12 12 12 11 12 12 12 14 16 17 17 18 18 18 18 17 18 18 17 18 16 14 13 15 17 17 17 17 17 18 18 20 22 26 27 28 28 28 28
5 3 3 3 2 2 1 3 2 1 4 2 2 2 2 5 4 4 5 5 5 5 4 5 5 4 6 7 4 5 2 2 6 4 6 18 17 17 23 20 18 17 18 19 16 16 16 16 15 14 13 13 13 13 14 14 13 13 12 12 11 11 11 11 11 13 15 16 17 17 17 17 18 17 17 17 18 18 15 13 14 17 19 19 19 19 18 17 18 21 23 26 27 28 28 27 28
3 2 4 4 2 3 3 3 2 4 3 3 2 3 3 6 6 5 4 5 4 4 3 3 4 2 5 8 4 5 4 2 6 5 6 14 16 21 22 17 16 15 17 18 16 16 15 16 16 15 14 13 13 14 14 13 13 13 12 12 11 10 10 10 11 13 15 15 16 17 17 17 17 18 17 18 18 18 15 15 17 18 19 19 18 18 17 17 18 21 23 24 27 27 27 27 27
3 2 2 3 3 1 2 2 1 5 2 4 2 1 5 7 6 5 3 2 1 4 3 3 2 2 4 5 2 3 3 4 6 7 9 15 21 23 20 17 16 15 18 17 16 16 15 15 15 15 15 13 13 13 13 13 13 12 12 11 11 10 10 10 10 12 14 15 16 16 16 17 17 18 17 17 18 17 15 16 18 17 18 18 18 17 16 18 20 21 23 23 26 27 27 28 27
4 3 1 0 1 2 2 2 2 3 1 4 4 3 6 6 7 7 4 3 4 5 5 4 3 2 4 2 3 3 1 6 8 9 13 19 23 21 20 19 16 17 17 16 16 15 16 16 15 15 14 14 13 13 13 12 12 12 12 11 10 10 10 10 10 11 13 14 15 15 16 16 16 17 17 17 17 16 15 14 15 16 17 17 17 15 16 19 20 22 23 22 25 27 27 28 27
6 5 1 2 2 1 3 3 2 1 2 2 7 5 6 6 7 7 5 3 5 4 4 2 4 6 3 1 3 4 2 9 11 12 17 22 25 21 20 19 18 19 16 14 14 15 16 16 15 15 14 14 13 13 12 12 11 12 11 11 10 10 10 9 10 11 12 13 14 15 15 16 16 16 17 16 16 16 15 14 13 15 17 17 17 15 17 20 21 22 22 21 24 27 26 25 24
3 2 1 4 2 2 3 2 2 3 1 2 5 7 8 8 6 6 5 3 1 0 2 1 4 6 2 3 3 3 7 13 16 18 21 24 25 22 20 19 19 19 17 14 13 15 16 16 16 15 15 14 12 13 12 11 11 12 11 10 10 9 9 9 9 10 11 12 13 14 15 16 17 16 16 15 14 14 15 15 14 16 16 17 16 15 16 20 21 22 21 21 25 25 25 24 23
0 0 1 3 1 3 2 1 1 2 1 3 5 6 8 8 6 5 4 3 3 2 1 3 5 6 2 6 4 1 9 17 22 24 25 25 25 23 21 19 19 19 18 15 13 15 17 16 16 15 15 14 12 12 12 12 12 12 11 10 10 9 9 9 8 9 10 11 12 13 14 16 17 17 16 14 13 13 14 14 15 15 14 14 14 13 16 20 21 21 21 23 25 24 24 24 23
1 1 1 2 1 3 1 1 0 2 2 3 5 7 7 7 6 6 6 5 5 4 2 3 5 5 5 5 2 2 9 18 24 25 24 25 24 23 20 19 20 19 18 16 14 16 18 16 15 16 15 14 12 10 11 13 13 12 12 10 9 9 9 8 8 8 9 10 11 12 13 15 17 18 15 13 13 13 13 13 14 13 13 14 13 13 17 20 20 20 23 25 25 24 23 22 22
2 2 2 3 3 2 2 3 2 3 3 2 2 4 6 7 6 5 6 5 4 5 2 1 4 4 6 4 1 5 16 20 23 25 23 25 25 23 18 18 20 18 18 16 14 16 18 17 15 15 15 14 13 10 12 14 14 14 12 11 10 9 9 8 8 8 8 9 10 12 13 15 17 17 15 14 14 14 13 13 13 12 13 13 12 14 18 20 20 21 24 25 23 22 22 22 22
1 2 4 3 1 1 3 4 4 4 3 4 1 2 4 6 5 5 7 5 4 5 3 2 2 3 6 2 1 8 18 18 21 24 23 25 25 20 15 17 20 17 17 16 15 17 19 17 16 16 15 14 13 12 13 16 16 14 13 12 11 10 9 9 8 8 8 8 10 11 12 14 15 16 16 15 14 14 13 13 13 13 13 13 13 15 17 19 20 22 24 23 21 21 22 23 24
2 1 6 1 3 3 4 5 4 3 2 3 4 3 4 5 3 6 7 6 5 6 3 5 2 5 5 1 2 7 12 16 20 21 22 25 22 16 13 17 19 17 16 15 15 17 19 17 17 17 16 15 14 13 15 17 16 15 14 12 12 11 10 9 9 8 8 8 9 10 11 12 14 15 16 15 14 14 14 14 13 13 14 14 15 16 16 18 19 21 22 21 20 21 22 22 23
1 2 5 1 2 2 4 4 3 4 1 4 3 2 3 2 2 4 7 6 2 4 3 4 4 7 3 1 2 4 9 18 21 19 20 22 18 14 15 16 17 17 15 14 14 16 19 17 17 17 17 16 15 15 16 18 17 15 14 13 13 12 11 10 9 9 8 8 8 9 10 11 13 14 14 14 13 12 13 14 14 14 14 15 15 15 16 17 17 19 20 19 20 21 21 21 21
2 1 5 1 3 2 1 2 4 5 2 3 3 4 4 1 2 5 6 6 1 3 1 1 3 4 3 4 4 6 14 22 23 21 20 20 17 15 17 16 15 17 15 14 14 15 18 18 18 18 17 17 16 16 17 18 17 15 14 14 13 12 12 11 10 10 9 9 8 9 10 11 12 13 13 12 11 10 11 14 14 15 14 15 15 15 16 16 16 18 19 19 20 20 21 20 20
2 2 5 2 2 2 2 1 5 5 2 4 3 5 5 2 2 5 1 6 2 2 2 1 1 3 5 4 6 14 23 26 24 21 20 19 17 16 17 16 16 18 17 16 15 14 16 19 19 18 18 17 17 17 17 17 17 16 15 14 14 13 13 13 11 10 10 9 8 9 10 11 12 12 12 11 11 10 11 12 13 14 14 15 15 15 16 16 16 18 19 19 20 20 20 20 19
3 4 4 1 1 1 2 1 3 3 3 4 3 4 6 2 2 2 1 5 4 1 4 2 4 4 5 4 13 26 28 27 24 21 20 20 19 18 18 16 18 19 18 17 16 16 16 18 19 19 19 18 18 17 17 17 17 17 16 15 15 15 14 13 12 11 11 10 9 9 10 10 12 12 12 12 11 11 11 11 11 12 13 14 15 16 16 16 18 19 18 19 20 19 19 19 19
4 3 3 1 2 0 3 4 4 5 4 5 5 5 7 4 1 1 2 5 3 3 4 4 7 7 8 13 23 29 28 27 25 22 21 20 19 19 19 18 19 20 20 19 18 19 18 18 18 19 20 19 18 18 18 18 17 17 17 16 16 16 15 14 13 12 12 11 10 10 10 10 11 12 12 12 12 11 11 12 12 12 13 14 15 15 16 18 19 18 18 20 20 18 18 19 19
3 3 3 3 3 0 4 2 2 4 7 7 6 6 5 5 5 2 2 1 2 4 2 4 7 6 8 14 22 26 26 26 25 24 22 21 21 21 20 19 20 21 22 23 22 21 20 20 19 19 20 20 20 19 19 19 18 18 18 17 17 17 17 15 15 14 13 12 11 10 10 11 11 12 12 12 12 12 12 12 13 13 14 14 15 16 18 20 20 18 19 20 19 18 18 18 18
2 3 3 4 5 2 5 3 1 1 8 9 5 5 4 4 5 3 3 4 4 5 4 4 4 4 7 9 16 22 23 23 23 23 22 22 23 24 24 23 23 25 25 25 25 23 22 23 21 21 20 21 21 20 19 19 19 20 19 19 19 19 18 17 16 15 15 14 12 12 12 12 12 12 13 13 13 13 13 13 14 15 15 16 16 18 20 21 20 19 19 19 19 18 17 17 16
1 3 4 5 3 2 4 3 3 2 6 9 6 5 4 3 4 3 5 5 3 6 7 8 8 10 11 9 13 19 19 20 21 21 21 21 22 24 26 27 26 26 25 25 25 25 24 24 24 22 22 22 22 21 20 20 20 21 21 20 20 20 19 19 18 17 16 15 14 13 13 12 12 13 14 14 13 13 14 15 16 16 17 17 17 19 21 21 20 20 19 19 19 18 17 16 15
1 1 4 3 3 3 3 2 4 4 5 6 6 6 4 3 3 4 7 5 5 6 7 10 10 13 15 13 14 16 15 17 19 20 20 21 22 23 25 26 24 23 23 25 27 27 26 25 25 23 23 23 23 23 21 21 21 22 23 23 22 21 21 21 20 18 17 17 16 15 14 14 13 14 14 14 14 14 15 16 17 17 17 17 18 19 21 21 20 20 19 19 18 17 17 16 14
3 1 1 2 3 4 2 2 4 4 7 5 4 3 2 4 1 3 7 6 7 6 7 8 9 14 19 17 16 13 13 15 19 22 24 24 24 24 26 26 25 25 25 26 28 29 28 28 26 25 24 24 23 23 23 22 22 22 23 24 24 23 23 23 22 21 20 19 19 18 17 16 15 15 15 15 15 15 16 17 17 18 18 19 19 20 21 21 19 19 18 18 17 17 17 17 15
5 2 1 3 4 4 2 1 2 5 7 3 2 2 2 5 3 1 4 8 6 6 5 6 9 16 19 15 14 14 15 18 22 26 27 28 29 28 28 28 28 28 27 27 27 28 30 30 29 27 26 26 24 23 24 23 23 22 23 25 25 25 25 25 24 22 22 21 22 21 20 19 18 17 17 16 16 17 17 18 18 18 19 19 20 21 21 20 18 17 17 17 17 17 17 17 17
3 2 1 2 3 2 2 2 2 4 5 2 4 3 3 5 4 0 5 9 6 7 4 8 11 14 15 13 13 12 13 17 20 22 24 26 27 26 26 27 27 28 29 29 28 28 29 30 30 30 29 28 26 25 25 24 24 23 24 25 25 25 25 26 26 25 24 23 24 24 23 23 22 20 19 18 18 18 19 19 19 20 20 20 21 21 19 18 17 16 16 17 17 17 17 18 18
2 4 3 3 2 1 2 2 1 1 2 3 4 1 5 4 2 2 8 9 7 6 6 8 10 11 11 11 12 12 11 15 19 21 24 25 23 23 25 27 28 30 31 30 30 30 29 29 30 31 33 32 28 25 26 26 25 25 24 24 25 25 25 26 27 27 26 25 27 27 25 25 25 23 21 20 20 20 20 20 20 21 21 22 22 21 19 17 16 16 16 17 17 18 18 18 18
2 5 4 5 4 2 2 2 1 1 1 3 4 2 5 3 1 3 8 7 7 7 6 7 9 10 11 9 11 13 13 17 22 23 21 21 22 25 27 28 30 31 31 30 32 31 30 30 31 30 31 33 31 28 27 27 26 26 26 25 25 25 25 25 27 28 28 27 28 29 27 26 26 25 23 21 21 22 22 22 22 22 23 23 22 20 18 17 16 16 17 17 17 18 19 19 19
5 7 5 2 2 0 1 3 2 1 1 2 5 1 3 2 1 7 8 4 7 10 7 7 8 8 9 9 9 11 13 19 23 21 19 22 26 29 30 31 32 32 32 33 32 31 30 31 32 31 29 32 34 31 30 29 28 27 26 26 27 26 25 25 27 28 30 29 28 30 29 27 27 26 25 23 22 24 23 22 23 24 24 24 22 20 19 17 17 17 18 18 18 19 19 20 19
6 7 5 1 3 3 3 3 2 2 0 3 3 2 4 2 7 11 6 2 6 9 8 7 8 7 8 9 8 8 13 18 19 20 24 28 31 32 33 35 35 33 33 33 31 31 31 32 32 31 29 30 34 34 32 30 29 28 26 26 27 28 27 26 27 28 30 31 29 30 30 29 29 28 27 25 24 25 25 23 23 24 25 24 22 21 20 19 19 20 20 20 20 20 20 20 20
3 3 5 2 5 4 6 2 2 3 0 3 3 1 6 6 11 10 4 5 7 8 8 7 7 7 7 8 7 8 12 14 17 23 29 30 31 32 34 36 36 35 33 31 32 32 31 32 33 32 31 31 33 34 34 32 30 29 28 26 26 28 29 28 28 28 29 30 30 30 30 30 31 30 29 28 26 27 27 25 25 25 25 24 24 24 22 21 23 24 24 23 21 21 20 20 20
2 1 2 3 2 4 6 1 4 3 1 2 6 2 6 8 11 9 4 7 8 7 8 6 6 6 6 7 8 8 10 15 21 27 30 30 31 32 33 35 35 36 34 32 33 34 32 32 33 33 33 34 34 34 34 33 32 30 28 28 26 26 28 29 28 28 28 29 30 30 30 30 32 32 31 30 30 30 30 29 28 27 26 26 27 27 25 25 26 26 26 25 23 22 21 21 20
3 2 3 2 3 3 6 1 5 5 2 2 6 2 6 8 9 8 2 6 8 7 7 6 6 6 7 7 7 8 9 16 22 26 29 31 31 31 33 34 34 36 36 35 34 33 34 34 34 34 35 36 36 35 34 33 32 30 28 28 28 27 27 29 30 30 29 28 29 31 31 30 32 33 33 32 32 31 32 32 30 29 28 29 30 30 28 28 29 28 27 26 25 24 23 22 21
3 3 2 3 2 2 4 3 2 5 1 1 2 3 4 4 6 7 5 2 6 6 7 7 7 8 8 7 7 8 8 10 14 20 27 30 32 32 33 34 34 35 36 36 35 34 35 35 35 35 36 37 37 36 36 34 33 31 29 26 27 28 28 28 29 30 30 30 30 30 32 32 32 34 35 34 33 32 33 33 33 31 31 32 33 32 31 30 31 30 27 26 27 26 25 24 22
4 1 1 4 3 3 2 4 3 3 4 1 2 3 6 7 7 7 6 2 4 5 7 8 8 8 8 7 7 8 8 9 10 18 27 30 32 34 34 34 34 35 35 36 36 36 35 35 36 36 36 36 35 36 36 36 35 34 32 28 26 26 27 28 28 29 30 31 30 31 33 35 33 33 35 34 33 33 34 35 36 34 34 34 35 34 33 32 32 31 30 28 27 28 28 26 24
3 3 2 3 3 4 3 3 2 2 3 2 3 4 9 12 10 8 7 5 6 8 9 8 8 8 8 7 7 8 9 10 12 21 30 32 33 34 34 34 33 34 35 35 36 36 35 36 36 36 35 35 35 36 36 37 36 34 34 32 29 27 27 27 28 29 30 30 31 32 34 37 36 33 33 33 33 34 35 36 37 37 37 37 36 35 34 33 33 32 32 31 29 28 29 28 27
7 6 5 3 3 2 3 3 3 0 2 3 6 6 9 11 11 9 9 7 7 10 9 7 8 8 8 7 8 8 9 11 15 21 29 32 33 34 34 34 33 34 35 35 35 36 36 36 36 36 36 36 36 36 36 36 35 34 34 34 33 33 31 30 30 31 30 30 32 33 34 35 36 34 33 35 34 34 36 37 36 37 39 40 39 37 36 36 36 35 34 34 32 29 27 29 29
7 5 4 3 4 1 3 2 5 1 2 5 7 7 9 10 11 10 9 8 7 9 9 9 9 8 8 9 9 10 10 12 13 17 24 29 32 33 33 33 32 32 33 35 35 37 38 38 38 39 38 37 37 38 37 37 37 35 34 35 37 36 34 33 31 31 31 31 32 34 34 33 34 35 36 38 36 34 36 37 36 37 39 39 40 40 39 38 38 37 35 34 34 32 31 31 31
6 5 5 2 1 2 2 2 5 3 2 5 4 5 11 10 11 11 8 8 8 9 10 11 12 10 9 10 12 12 10 9 8 11 18 25 28 29 31 31 31 32 33 35 36 38 38 38 39 40 39 39 40 40 40 39 40 39 38 38 37 35 34 34 33 32 32 32 32 34 34 33 32 34 37 39 37 35 35 35 36 37 38 38 38 39 39 39 39 38 36 34 32 33 34 34 34
5 4 5 2 2 2 2 3 4 1 2 4 5 6 11 10 10 11 10 10 10 9 11 11 11 10 9 10 11 11 10 9 8 8 13 20 24 26 27 29 31 33 34 34 34 35 35 35 37 38 39 40 41 41 41 41 41 40 38 36 35 34 32 33 33 32 31 31 33 33 34 34 33 34 36 36 35 34 33 33 35 37 37 38 38 38 38 39 40 40 40 38 34 31 30 33 37
4 4 4 1 3 1 2 4 4 2 1 2 4 6 10 9 7 10 11 11 9 8 10 9 8 10 11 12 12 12 12 11 9 8 9 13 17 21 24 28 31 31 30 31 32 32 33 34 36 37 38 39 40 40 40 40 38 36 35 32 31 31 30 29 29 29 30 32 33 34 35 36 35 35 36 36 36 37 36 36 38 38 38 40 40 39 40 41 42 43 42 41 39 34 30 33 38
1 3 5 3 2 2 2 2 3 3 3 3 4 5 8 5 4 7 7 5 6 6 6 8 8 10 11 11 12 11 10 9 9 9 8 8 13 20 24 27 28 29 29 31 33 34 34 35 36 36 37 38 38 38 38 37 34 32 31 28 25 27 28 27 27 29 30 31 33 35 36 36 37 37 37 37 37 38 38 40 41 40 40 42 41 40 42 43 44 45 44 42 42 40 35 35 37
3 1 5 6 5 4 1 3 5 5 5 3 4 4 6 5 5 8 7 6 7 6 4 8 9 9 9 10 12 10 7 7 7 8 7 8 12 17 20 24 26 28 30 32 33 33 33 34 35 35 36 36 36 36 36 35 33 32 31 29 27 27 27 29 32 34 33 33 33 34 34 34 34 35 37 39 40 38 38 39 40 42 43 44 42 39 41 43 44 45 45 44 43 42 39 36 37
1 3 4 5 7 6 4 5 4 1 3 3 3 3 5 8 8 8 6 7 9 8 8 10 9 8 9 10 10 7 6 7 6 6 5 8 11 14 18 23 26 28 30 30 30 31 31 32 33 34 35 35 34 34 34 33 33 32 32 32 30 29 29 30 32 33 33 33 33 33 33 32 32 33 34 36 39 40 39 39 41 42 42 41 39 38 41 43 45 45 45 46 44 41 39 37 39
2 4 4 6 7 6 5 6 3 2 3 4 3 4 2 8 8 5 2 6 9 9 11 12 9 8 9 9 9 7 7 7 6 6 6 8 13 17 20 23 26 27 27 27 27 29 30 30 31 32 32 32 32 32 33 33 33 33 33 32 31 30 29 29 29 29 29 30 31 32 32 32 32 34 34 33 35 37 38 39 41 40 38 36 36 38 41 42 44 44 43 44 43 41 41 41 41
5 5 5 6 7 6 5 6 3 1 2 5 4 2 2 6 9 5 1 4 8 10 12 11 8 8 9 9 8 7 6 6 6 7 7 8 13 19 21 23 25 26 25 25 26 27 27 28 28 29 30 31 30 31 31 32 33 33 33 32 31 31 30 29 27 26 27 27 28 29 30 31 32 34 35 33 33 35 36 37 38 38 36 36 37 38 40 42 44 44 44 43 42 41 42 42 41
4 3 6 5 5 5 5 5 3 3 2 5 5 3 2 5 8 6 3 2 6 9 9 8 7 7 6 5 4 3 3 4 5 6 5 7 13 18 20 20 22 24 24 23 24 24 25 27 27 28 29 30 29 30 30 31 32 32 33 33 32 31 29 28 25 24 25 25 26 28 29 31 33 34 36 35 34 34 34 34 35 36 36 36 37 38 40 42 43 44 45 45 45 43 43 42 40
5 6 7 6 6 5 4 3 4 3 3 7 7 7 5 4 6 5 3 3 6 6 5 3 4 4 2 5 5 6 5 4 4 1 1 2 7 13 16 18 19 20 21 21 22 23 24 26 27 27 28 29 29 29 30 31 32 32 33 33 32 31 30 28 27 25 25 25 26 27 29 31 32 34 34 35 35 34 33 33 33 34 35 35 37 39 41 42 43 43 43 43 44 44 43 42 40
6 5 5 4 4 4 5 5 4 1 6 6 5 3 4 4 6 5 6 6 6 3 0 1 1 2 2 2 4 5 5 4 2 1 0 1 3 7 12 15 17 18 20 21 22 22 23 25 27 27 27 28 29 29 30 31 32 32 33 32 32 32 31 30 30 29 28 27 27 27 28 30 31 32 33 34 34 34 33 34 34 34 34 36 38 39 40 41 41 41 41 42 43 43 41 40 38
6 5 6 4 2 3 3 3 1 3 6 4 3 2 3 6 6 6 9 10 7 4 4 4 4 3 4 4 6 6 4 4 3 3 3 3 3 6 10 14 17 19 21 22 22 22 24 25 26 27 28 28 29 30 30 31 32 32 32 32 32 31 31 32 32 31 31 29 29 28 28 29 30 31 32 33 33 32 33 33 34 34 34 35 36 37 38 38 39 39 40 42 42 42 41 39 37
4 5 6 5 3 1 3 4 1 4 5 4 3 2 3 4 3 8 12 11 7 5 6 7 7 7 6 6 6 5 4 5 5 5 5 5 7 10 13 15 17 19 21 21 22 23 24 26 27 28 29 29 29 30 30 30 31 31 31 32 32 32 32 32 32 32 31 31 30 30 30 30 31 31 31 31 31 30 31 31 32 33 34 34 34 36 37 37 39 39 40 41 41 42 41 39 37
5 5 6 6 5 5 5 4 3 4 4 3 3 1 3 2 3 7 8 8 8 5 4 4 4 6 5 5 5 4 4 5 4 5 6 7 10 14 15 16 18 20 21 22 23 24 25 26 27 29 29 29 29 30 30 31 31 31 31 32 32 32 32 32 32 31 30 30 30 30 29 29 30 30 30 30 30 30 31 31 31 31 33 34 35 36 37 38 38 38 39 39 40 40 40 39 39
3 3 5 4 6 5 3 3 5 3 1 3 2 3 5 4 6 8 7 9 10 8 8 7 6 6 4 5 6 4 5 6 5 6 7 8 11 14 16 18 20 21 21 23 24 24 25 26 27 29 30 30 30 31 31 32 31 31 31 31 31 32 32 31 31 30 29 29 29 29 29 28 28 27 27 27 28 29 31 32 32 32 33 34 36 36 37 38 38 38 38 38 38 39 39 39 39
2 2 4 5 5 7 4 2 0 3 2 4 2 5 5 3 7 9 8 9 8 7 9 9 10 9 7 6 5 4 5 6 6 7 8 8 10 14 17 20 21 22 23 24 24 24 25 26 27 29 29 30 31 32 32 31 31 31 31 31 31 31 32 32 32 31 31 30 29 28 28 28 28 26 25 26 26 27 29 31 31 32 33 34 35 36 36 36 37 37 37 37 37 38 38 39 39
5 3 6 3 2 3 4 1 2 2 3 4 2 6 5 2 5 4 2 1 4 5 7 8 9 8 7 8 6 5 6 6 7 8 7 7 9 13 17 20 21 23 24 24 24 24 25 25 27 28 29 31 32 32 32 31 31 31 31 31 31 31 31 32 32 32 32 32 31 30 29 29 29 27 27 28 27 27 29 30 31 32 33 34 34 35 35 35 35 36 36 36 36 36 36 37 38
5 4 4 4 2 1 2 3 2 1 3 5 3 5 4 5 6 1 3 1 4 7 7 6 8 7 6 6 7 7 6 3 4 5 6 6 8 11 15 18 20 21 22 23 23 23 24 26 26 28 29 30 30 31 31 32 31 31 31 30 30 30 30 31 32 32 32 33 33 32 31 31 30 29 29 29 27 27 28 29 30 31 32 32 32 33 33 33 34 35 35 35 34 34 34 35 36
2 1 2 2 3 4 3 3 3 4 3 4 4 3 4 7 6 7 6 5 5 7 7 4 5 5 3 4 6 7 6 5 3 4 5 6 8 12 13 14 17 17 19 20 21 22 24 25 26 28 29 29 29 31 31 32 32 31 31 30 29 30 30 30 31 32 32 33 33 33 32 31 30 29 29 28 26 27 27 26 26 27 27 28 29 30 31 32 32 33 34 34 32 32 32 33 34
2 3 3 2 1 2 2 2 3 4 4 3 3 5 8 6 5 8 9 6 6 6 1 2 2 2 2 5 6 5 4 5 5 5 6 6 8 11 11 12 13 14 16 17 18 20 22 24 26 28 29 29 30 31 31 32 32 31 31 31 31 30 29 29 30 31 33 33 33 33 33 31 30 30 29 28 27 26 25 23 23 23 25 26 27 29 31 32 32 32 33 32 31 31 31 32 32
8 7 8 7 5 4 2 3 2 2 4 5 4 6 12 5 6 7 8 6 6 7 4 2 3 4 5 6 5 1 1 4 6 6 6 6 6 7 8 10 12 14 15 15 17 19 22 24 27 28 29 30 31 31 31 32 31 32 32 32 31 30 29 29 29 30 32 33 33 33 33 32 31 30 29 29 28 26 24 23 23 24 25 26 28 29 31 32 32 33 33 32 31 31 31 31 32
Wind_Direction
302 298 3 36 19 10 350 71 60 321 73 74 277 88 191 186 120 98 80 65 63 350 131 103 83 71 86 110 125 113 71 45 185 143 191 171 144 152 162 164 164 157 154 150 149 148 145 143 140 136 132 131 129 124 120 116 110 106 104 99 94 90 84 82 75 70 68 69 74 82 86 85 85 87 89 90 91 91 91 92 93 91 86 83 80 75 74 75 78 82 91 100 102 102 98 94 92
307 299 20 45 28 23 307 94 81 329 53 48 308 128 169 34 59 98 118 100 125 190 148 101 88 81 100 123 130 93 40 4 91 122 120 137 138 150 163 164 163 156 153 150 150 149 145 143 141 136 132 132 128 125 123 118 114 109 107 102 98 94 88 85 76 69 70 71 74 83 88 89 88 89 91 91 92 93 94 98 98 96 91 86 81 79 80 79 82 85 92 101 103 101 97 93 91
314 322 41 47 16 51 35 44 86 69 69 94 288 282 84 76 98 130 129 126 151 159 112 76 69 72 82 88 75 74 90 8 91 92 111 136 137 145 153 158 159 153 152 151 151 150 146 143 140 137 134 133 130 128 126 121 117 115 112 106 102 98 92 87 78 71 71 73 76 84 89 91 92 93 94 93 95 95 96 95 94 92 87 83 81 82 84 84 85 87 93 100 101 99 96 94 93
336 21 28 47 38 27 55 45 138 114 105 156 250 290 93 120 141 129 129 148 165 134 105 68 52 353 75 88 81 84 131 134 111 118 128 142 143 146 149 151 154 151 153 153 150 150 147 144 141 139 136 134 134 131 128 124 121 119 114 108 106 102 96 90 80 75 75 76 80 87 93 94 95 96 96 97 99 98 94 89 89 90 87 86 84 84 86 86 85 88 96 100 100 98 95 95 95
3 47 355 52 78 44 84 66 90 91 135 180 161 221 138 142 142 130 127 127 112 83 87 95 80 327 68 90 115 106 129 125 127 132 135 145 145 146 148 150 149 147 155 155 151 153 150 148 145 142 138 138 139 135 132 127 125 123 117 114 111 108 103 95 85 79 80 81 84 90 96 98 98 99 99 101 104 100 93 89 89 90 91 91 90 91 87 86 85 90 99 100 99 98 95 96 97
1 29 299 349 123 142 95 57 39 61 205 167 128 171 157 146 143 134 112 60 32 60 75 91 115 97 70 25 62 89 152 137 133 140 147 151 151 148 148 151 147 146 156 157 155 157 155 154 150 145 141 143 143 140 137 131 130 128 122 120 118 117 110 102 92 84 84 86 89 93 99 102 102 102 102 104 106 104 101 97 97 98 100 97 96 96 87 87 89 93 100 99 99 100 97 97 98
358 7 18 32 -0 62 92 107 141 81 348 119 126 158 156 146 143 128 122 81 16 25 52 76 123 99 86 80 73 22 40 142 138 147 159 157 156 149 149 153 147 152 163 162 159 160 159 158 155 150 146 145 146 143 141 138 135 133 129 126 126 122 115 107 97 91 89 90 93 98 103 105 105 105 103 108 112 112 111 107 108 108 105 101 101 99 91 92 93 96 101 100 101 102 100 97 99
354 334 95 76 21 18 82 112 169 169 10 58 122 149 148 148 143 126 145 136 88 57 53 67 96 89 65 74 99 13 75 126 133 142 151 151 154 151 152 155 150 158 169 168 164 163 162 161 159 155 152 147 148 147 145 144 141 138 134 131 131 126 120 112 102 96 92 92 97 104 108 110 111 109 107 112 118 114 109 107 108 109 106 102 101 98 94 96 96 99 100 103 106 105 102 99 98
180 198 29 76 71 12 58 72 87 150 107 80 109 138 145 148 143 126 131 125 145 136 140 170 99 105 124 63 96 84 92 123 133 139 146 148 155 154 155 156 158 164 168 170 169 167 164 163 163 159 155 150 151 152 151 151 148 145 140 137 136 131 125 116 109 102 96 96 101 109 112 115 115 112 111 117 118 112 108 106 104 105 107 105 101 100 101 101 100 100 103 108 109 106 104 100 97
73 82 58 77 47 12 58 187 140 124 148 138 127 145 151 150 144 133 126 129 138 112 189 173 94 114 128 92 108 152 133 139 138 140 149 153 155 157 156 159 167 168 166 171 171 170 167 165 166 162 159 154 152 153 159 158 152 151 146 144 142 137 131 121 117 109 104 102 104 112 114 118 120 116 114 117 115 110 110 111 107 106 109 107 105 108 107 105 102 102 108 111 108 105 103 101 100
40 338 86 76 36 4 187 171 158 139 155 131 101 156 159 153 137 128 126 123 121 120 182 83 82 130 102 101 258 154 148 150 147 144 150 155 155 156 155 162 174 173 170 173 172 172 170 167 167 166 164 158 154 153 162 162 155 155 153 151 150 146 139 130 126 120 113 107 108 114 117 120 123 121 116 117 118 114 115 116 111 107 106 106 111 114 110 109 107 109 114 113 107 103 102 102 104
79 316 75 83 165 217 190 159 169 148 125 117 123 225 148 129 120 129 133 131 130 125 179 152 132 141 93 88 253 152 150 153 156 151 152 152 154 156 155 168 177 176 175 176 173 174 174 171 168 170 169 164 160 157 159 161 158 159 159 158 157 154 147 141 135 130 124 117 115 117 121 123 126 127 122 121 122 120 121 122 118 110 106 108 114 114 112 113 113 117 118 114 109 105 105 106 106
126 180 87 117 205 166 157 146 167 123 97 174 182 217 118 103 148 168 145 133 141 123 193 214 148 91 96 92 120 154 159 157 155 154 158 154 155 158 154 165 175 175 176 176 173 174 177 175 173 174 173 170 168 161 158 161 163 163 165 164 163 160 154 152 145 141 140 131 125 123 125 127 130 132 130 128 128 128 127 128 126 118 112 111 113 111 111 112 116 123 121 114 111 110 109 110 109
165 173 108 186 269 133 157 126 131 117 230 238 185 177 119 113 187 157 126 109 137 147 202 232 123 92 105 117 123 186 174 161 155 153 158 158 158 158 152 156 168 175 177 178 174 176 181 180 179 179 177 176 174 168 163 166 169 168 170 170 168 166 162 161 158 153 152 146 137 130 129 131 133 135 136 135 136 138 134 131 128 121 117 114 113 113 114 111 112 123 123 116 115 115 113 112 111
176 164 97 111 334 352 222 129 132 126 186 223 175 158 107 90 115 74 112 125 250 228 198 339 95 104 156 162 194 202 166 161 158 153 154 157 159 159 159 157 163 172 180 183 178 180 184 186 184 182 182 181 179 175 171 173 176 175 176 177 174 172 171 170 170 163 157 156 148 137 134 133 133 136 137 137 137 135 134 134 130 125 121 118 117 116 117 113 112 124 126 120 118 119 117 113 111
138 102 75 48 322 323 273 137 113 110 197 199 171 130 94 322 71 75 173 136 139 285 36 32 31 108 155 178 188 163 155 158 158 157 156 160 163 161 162 161 162 169 177 183 183 183 185 189 190 188 188 186 185 181 179 180 181 181 180 181 179 177 179 179 176 170 164 163 155 144 138 136 133 135 137 137 135 129 130 136 134 129 125 122 120 119 119 115 120 130 130 126 123 121 120 115 112
64 74 72 9 264 196 255 205 138 143 198 193 176 130 120 284 16 81 311 83 114 82 58 46 12 74 127 146 150 148 151 156 159 162 160 160 162 158 160 161 162 167 172 179 185 186 187 190 192 192 192 192 190 186 185 186 186 186 184 184 181 181 185 185 181 175 172 167 162 155 146 143 138 137 138 137 137 134 134 136 137 134 129 127 125 125 123 120 129 136 133 132 127 122 123 120 116
63 80 107 219 227 284 273 220 181 143 150 179 190 158 133 165 194 120 43 52 78 88 75 66 36 48 91 118 136 144 150 156 161 164 160 161 163 161 164 166 167 171 174 177 183 187 189 191 192 192 194 195 194 193 192 191 191 191 190 188 185 185 188 190 187 181 178 173 170 167 158 153 146 142 143 143 143 143 143 141 141 140 138 136 132 131 126 127 136 139 137 138 133 126 127 125 123
98 125 131 219 206 29 314 242 152 123 151 173 192 171 147 179 174 132 161 196 129 110 92 74 65 59 92 120 135 144 152 157 165 167 165 168 172 171 172 174 176 179 181 183 185 187 190 192 194 192 193 195 196 197 196 195 195 196 196 194 191 191 193 195 192 186 183 180 177 175 170 164 155 151 151 151 151 150 151 148 145 144 144 142 139 135 131 135 142 142 141 144 142 134 131 130 130
157 117 123 242 202 162 335 359 43 148 154 158 189 174 159 193 158 137 179 177 168 169 177 119 126 164 149 145 145 149 155 160 168 171 173 176 180 181 180 181 185 189 189 188 188 190 191 193 196 195 193 193 195 198 198 197 198 200 200 198 197 196 197 198 196 191 187 185 181 181 178 170 166 163 159 159 157 155 155 152 150 150 149 148 146 142 140 144 147 147 147 150 150 143 137 135 136
165 113 162 231 178 125 319 334 357 10 136 154 167 128 126 183 152 157 153 139 230 228 203 184 188 180 168 170 162 160 161 164 172 176 180 183 186 189 189 189 190 194 195 191 192 195 196 196 197 196 195 194 195 197 199 200 199 202 203 202 201 199 198 197 197 194 190 188 181 182 184 177 175 172 167 166 163 160 159 158 157 157 156 154 153 148 147 149 150 152 154 155 157 154 147 142 142
106 144 171 208 132 117 279 300 359 10 98 121 120 116 146 152 145 178 150 152 228 230 207 201 194 173 168 172 168 168 168 171 177 182 187 189 191 194 196 196 195 196 197 198 199 200 201 200 199 197 196 196 198 199 201 201 200 203 204 204 202 201 199 198 200 197 192 189 181 182 187 182 180 179 175 172 169 166 164 163 162 161 160 156 156 153 151 153 155 157 158 158 161 161 156 150 147
120 206 92 32 109 127 241 291 350 30 85 97 118 144 155 121 192 211 161 186 216 207 193 192 193 170 163 161 161 170 179 182 186 189 191 192 193 196 198 199 198 197 199 205 207 206 207 206 204 201 198 198 200 202 204 201 200 203 204 203 202 201 201 200 203 200 195 190 183 184 191 190 186 184 183 179 175 173 170 168 167 165 162 159 160 158 156 158 160 161 163 164 165 166 163 157 154
113 176 12 55 91 112 171 196 12 60 96 139 131 103 140 152 197 256 198 222 214 209 193 142 144 149 149 153 166 179 184 188 194 196 194 194 197 198 199 199 200 201 202 206 209 210 212 211 208 204 202 203 203 204 205 204 202 203 203 202 202 203 202 202 204 203 198 192 187 189 194 197 196 191 189 186 180 178 176 173 170 169 166 163 163 162 162 163 166 169 169 170 170 170 167 163 159
112 165 196 98 79 116 142 102 66 73 105 105 73 98 217 189 176 180 238 240 215 202 172 112 120 134 146 161 176 183 186 193 199 200 200 202 201 200 201 201 202 204 206 208 209 212 213 212 210 207 205 207 207 205 206 206 205 204 203 202 204 205 205 205 204 203 201 195 191 194 197 198 199 199 195 191 186 182 180 178 176 173 171 169 165 166 170 172 173 175 175 173 172 171 167 164 161
200 151 142 108 102 156 118 86 90 115 127 94 84 297 275 232 197 261 244 233 204 174 140 128 130 141 161 171 180 185 187 195 199 201 205 205 203 202 203 203 204 206 210 211 210 212 213 211 210 209 207 207 207 206 207 207 206 205 204 204 206 208 210 210 206 204 204 200 194 197 202 201 201 202 199 194 190 187 184 182 181 178 175 172 171 172 178 181 181 181 181 176 171 169 165 164 162
161 115 104 117 145 174 111 126 207 162 92 113 122 253 283 275 282 265 258 238 179 156 151 154 147 159 178 178 186 190 190 198 199 198 201 203 204 206 206 205 206 209 210 211 211 212 212 212 212 210 208 208 207 207 208 209 208 209 209 207 208 210 211 211 209 207 206 204 198 200 204 204 204 203 201 198 194 191 188 186 185 182 179 176 176 179 182 188 189 187 184 179 173 169 162 162 163
120 108 85 102 138 338 79 135 204 126 52 151 126 167 288 5 308 231 243 240 160 162 174 173 168 177 185 185 191 192 199 204 199 192 192 199 205 206 206 206 207 209 210 211 213 212 211 212 211 210 208 206 206 206 208 209 211 213 213 212 211 211 211 210 210 209 209 206 203 204 204 203 205 203 202 202 197 194 192 190 188 187 184 180 181 184 186 193 192 185 181 177 173 168 162 161 164
124 106 90 327 18 349 246 170 189 129 96 233 123 4 297 189 232 240 233 190 151 163 177 183 189 193 191 194 195 197 208 206 196 194 199 203 206 205 206 208 207 207 210 212 212 210 211 211 209 209 207 205 204 205 208 210 212 212 213 216 216 214 212 212 212 211 210 209 206 207 207 205 205 204 203 203 201 197 196 195 193 192 191 186 187 189 190 192 189 180 175 173 172 169 164 161 164
124 98 102 81 20 322 256 210 153 131 202 273 104 319 280 237 243 259 233 168 144 162 188 195 201 204 203 202 201 209 213 203 196 202 208 209 210 208 209 211 209 209 210 209 208 208 208 208 207 208 208 206 204 206 209 210 211 212 214 219 219 216 213 213 213 213 212 210 209 209 210 207 206 206 204 203 202 199 197 198 198 198 196 192 192 194 193 190 185 180 175 173 172 173 169 166 168
110 90 65 81 86 287 285 219 152 150 285 3 90 186 269 270 268 281 240 171 154 180 208 214 217 216 212 210 209 217 217 207 206 209 211 214 214 213 214 214 212 211 211 208 208 207 206 206 206 208 209 207 206 207 209 211 212 214 217 218 218 217 216 216 216 216 215 214 212 212 212 209 207 206 206 205 203 200 198 199 200 200 198 197 196 197 194 189 186 183 181 178 173 174 173 170 172
68 95 331 345 145 262 307 293 166 169 266 36 98 201 272 280 283 304 306 154 155 188 222 240 241 235 226 224 217 219 224 216 213 212 214 216 217 217 218 217 213 212 212 211 210 208 208 210 210 210 210 209 209 209 209 212 212 213 215 215 216 217 219 220 221 220 219 216 216 215 215 212 209 208 208 207 205 203 201 199 200 200 198 197 198 197 195 191 189 187 186 185 178 173 173 169 169
1 103 223 275 164 240 304 311 218 158 147 341 141 220 270 287 295 322 339 143 158 194 229 238 238 240 234 228 221 220 226 224 219 217 215 216 218 220 221 219 216 214 214 213 211 209 209 211 212 213 212 212 213 212 210 211 210 210 212 212 213 216 218 220 221 223 222 220 219 220 218 214 212 212 210 209 209 208 206 203 202 201 200 199 198 196 195 194 192 189 185 186 184 176 170 166 163
317 58 210 248 188 171 238 284 294 101 105 252 259 235 251 271 283 301 311 256 178 214 238 240 235 239 239 228 223 220 218 222 221 217 215 215 218 221 222 221 219 216 216 214 213 211 210 210 212 214 215 215 215 212 211 212 212 211 212 212 212 215 218 219 221 223 225 223 221 223 223 217 214 214 211 211 213 213 210 208 206 203 202 201 198 195 194 193 193 192 184 182 185 178 171 167 164
195 194 201 262 214 175 208 246 277 72 98 250 274 265 258 267 273 275 276 242 205 229 238 241 240 237 240 232 223 221 219 226 224 215 215 216 217 219 220 221 218 216 216 215 214 213 211 211 212 214 214 214 214 213 211 213 214 213 214 215 216 219 220 220 221 222 224 225 223 223 221 217 215 214 213 214 217 217 214 210 206 205 205 203 197 194 192 190 190 191 186 179 179 178 176 172 166
162 176 160 169 190 229 249 250 285 122 114 251 244 248 258 264 271 272 269 250 222 237 245 247 248 241 240 236 231 229 224 233 231 219 217 218 218 218 218 218 217 215 215 214 213 212 211 211 211 212 213 213 211 211 210 211 212 213 215 215 219 223 224 223 222 222 222 224 224 222 219 217 216 214 215 216 216 218 217 212 209 208 207 203 197 194 193 194 193 190 186 179 174 171 172 171 168
127 120 108 145 153 275 275 260 299 329 112 255 243 250 263 265 272 268 264 265 246 239 244 246 245 242 239 235 238 235 229 240 239 224 220 220 219 218 216 215 214 212 213 214 212 212 213 213 211 211 212 211 210 209 209 209 209 210 211 214 217 219 221 222 222 221 221 222 224 223 222 220 218 217 218 216 215 218 216 212 212 211 207 202 199 199 198 197 194 189 183 179 176 171 168 170 172
93 104 80 31 152 197 247 239 293 338 86 269 286 293 272 262 268 268 262 264 252 230 228 235 235 235 238 237 242 242 241 252 243 223 220 219 218 216 213 211 209 209 211 212 212 213 213 212 212 213 213 211 212 212 211 211 212 212 212 213 215 215 217 219 220 220 219 220 222 222 222 221 219 218 216 213 211 214 214 212 212 211 208 205 202 201 199 195 191 189 185 179 177 175 173 174 174
81 97 93 14 263 193 289 310 297 357 118 273 334 329 281 265 259 262 256 248 245 232 226 232 231 231 239 238 242 245 247 252 243 233 222 215 214 210 207 207 208 210 210 210 212 212 211 211 213 215 214 213 214 215 215 215 216 216 216 217 216 214 216 219 221 221 219 219 220 221 222 222 220 219 219 218 216 217 221 221 217 212 211 210 205 200 197 194 192 193 192 186 179 175 176 178 179
85 105 113 251 267 155 268 299 290 258 177 274 340 321 283 280 271 262 257 251 256 250 241 244 233 227 234 235 238 239 239 241 239 245 235 214 207 203 202 205 207 208 208 208 210 211 212 213 215 216 217 217 215 216 217 218 218 218 219 221 220 217 217 218 219 221 221 220 220 222 224 223 221 220 220 224 225 225 228 229 223 216 214 212 208 203 199 197 196 194 193 190 183 176 176 182 185
343 135 138 207 246 144 196 285 314 330 349 349 9 331 290 305 333 290 281 287 281 264 252 257 246 234 240 245 246 239 234 231 224 234 233 201 194 197 200 203 204 205 206 209 211 212 214 216 217 218 219 219 218 218 218 218 217 216 215 217 217 216 216 216 215 217 219 220 222 224 226 226 225 224 223 225 227 225 225 225 222 219 218 213 208 206 205 203 200 196 194 192 190 187 184 185 187
321 233 170 183 163 137 108 10 25 24 344 322 41 5 291 305 319 285 293 322 300 293 281 259 251 243 243 248 249 244 239 233 223 229 220 195 193 195 199 202 202 204 208 212 214 215 217 218 219 220 221 221 220 219 218 217 216 214 211 209 208 208 210 213 214 216 217 219 223 227 228 228 228 228 229 229 229 227 224 222 221 220 218 212 208 209 208 204 200 198 197 196 197 197 191 185 187
306 245 178 150 124 112 87 51 51 62 270 285 69 100 268 300 298 261 267 294 287 294 290 265 254 247 240 242 247 246 245 243 239 234 204 186 190 193 200 203 202 206 212 214 216 217 219 220 221 221 222 222 220 218 217 217 216 215 214 213 212 211 212 216 219 221 223 223 225 228 230 230 227 225 224 223 222 222 223 223 222 219 214 210 209 210 208 205 202 202 202 201 200 198 193 187 188
228 235 153 124 106 113 118 92 88 213 257 321 17 119 206 292 285 243 238 297 296 293 280 267 258 250 244 248 252 245 240 240 238 233 209 190 193 197 203 205 206 211 214 215 217 219 220 222 222 222 223 223 221 219 218 217 217 217 218 218 219 221 223 226 227 228 229 229 229 230 230 229 225 223 223 222 218 218 220 220 220 217 215 215 216 214 211 208 207 205 203 203 201 199 199 197 192
235 217 143 125 116 125 119 97 90 353 8 321 314 118 174 270 281 288 306 299 292 277 267 270 275 264 248 245 249 246 245 242 231 229 220 203 201 204 207 208 211 214 217 218 220 222 222 222 223 222 222 222 221 219 218 218 220 221 221 220 222 225 228 232 233 233 231 231 231 231 230 228 226 224 224 225 222 220 220 218 217 218 220 221 218 215 212 210 210 208 206 205 202 202 204 203 197
215 159 94 70 76 79 78 96 97 35 12 260 243 185 200 265 281 295 319 293 269 268 272 276 287 286 251 221 208 194 204 215 222 231 222 202 204 208 209 211 214 216 219 223 224 224 223 221 220 220 221 221 220 219 218 218 220 221 222 222 223 225 226 228 231 231 230 229 230 230 229 227 225 223 223 224 224 222 222 221 221 221 222 223 221 217 213 211 211 210 210 209 206 206 207 206 203
123 88 65 42 28 37 44 62 79 53 286 255 232 200 199 268 277 262 252 228 233 264 304 313 336 7 103 157 161 164 174 186 199 242 0 158 192 204 206 207 212 215 218 221 222 222 220 219 218 218 220 220 219 218 218 219 220 221 223 224 224 225 225 224 224 225 225 225 227 228 229 227 224 223 223 223 223 224 225 226 226 225 224 223 222 218 214 213 213 212 212 212 209 209 210 209 208
90 79 80 58 353 13 17 2 52 146 255 264 266 221 179 235 261 250 253 257 243 244 330 139 50 56 123 186 207 201 195 190 178 152 90 108 145 181 195 200 205 208 211 215 218 218 217 216 216 216 217 217 218 218 218 220 221 222 224 225 226 227 227 225 223 224 223 223 225 226 228 227 225 224 223 222 222 223 224 225 225 225 224 222 220 216 214 214 215 215 214 213 211 211 212 212 210
74 93 97 91 332 7 355 306 185 227 249 260 300 322 203 233 246 254 271 274 248 187 164 185 190 203 234 250 252 246 214 179 185 201 218 228 203 195 197 198 199 201 207 211 213 214 214 214 214 214 215 216 217 218 218 220 222 224 225 226 228 229 229 228 227 227 227 226 225 224 225 225 223 222 221 221 222 222 222 222 222 222 222 222 221 218 216 216 217 217 216 215 214 212 212 213 213
132 137 132 136 146 144 249 259 260 260 261 274 311 310 263 278 264 239 251 263 251 190 185 199 192 201 225 231 238 257 240 197 196 206 218 233 229 222 214 207 203 204 207 210 211 212 212 212 213 214 216 217 217 218 219 220 223 225 227 228 229 230 230 230 230 230 231 229 226 225 225 225 225 225 225 225 225 224 224 225 225 224 223 223 223 222 220 219 220 219 218 216 215 215 214 215 216
179 153 135 155 163 165 204 210 213 247 271 290 300 262 208 221 271 243 242 272 287 281 251 234 223 224 234 249 249 249 238 222 209 209 218 226 225 224 221 217 214 212 211 211 212 212 212 212 213 215 216 217 217 219 220 222 225 226 228 229 230 231 232 232 232 233 233 230 226 225 226 227 228 231 233 234 232 229 228 228 229 229 226 224 224 223 221 221 222 221 219 218 218 219 218 217 219
234 137 116 182 191 156 159 190 182 182 299 291 259 234 211 211 271 271 258 268 281 295 310 326 304 269 264 281 272 252 237 231 216 215 226 232 229 225 224 223 221 219 217 216 214 213 214 215 216 217 218 218 218 220 222 224 227 228 228 229 230 231 232 233 233 232 230 229 228 225 226 230 232 234 236 236 236 234 232 230 230 232 230 226 224 223 223 223 224 222 221 220 221 221 219 219 220
198 150 175 213 179 130 130 261 310 91 261 268 208 248 282 326 286 271 259 263 281 306 305 296 287 290 305 304 289 260 246 240 226 222 228 232 227 224 225 224 223 223 222 221 220 219 220 220 219 219 220 220 221 223 224 226 227 228 229 230 230 231 232 232 231 229 227 228 229 228 230 232 232 232 234 238 241 241 237 234 233 234 233 229 226 225 225 226 225 224 223 222 223 224 222 221 221
135 186 213 193 90 89 112 220 342 41 251 270 238 247 279 326 273 289 65 187 278 282 270 271 284 296 301 299 301 284 256 238 225 226 238 244 234 228 228 229 229 229 229 229 228 228 227 226 224 222 222 222 223 224 226 227 228 229 230 231 231 232 233 234 233 230 229 228 229 229 230 231 231 231 234 237 239 241 239 236 234 234 233 230 228 227 227 226 224 223 224 224 225 225 224 222 222
138 189 195 123 121 238 121 161 210 192 243 275 277 262 259 221 225 196 105 186 296 290 283 287 281 277 282 297 306 301 289 268 231 235 254 262 252 241 233 231 233 234 235 235 234 232 230 228 227 226 227 227 227 226 227 228 230 231 233 234 234 234 235 235 234 232 230 230 230 230 229 229 229 231 233 232 234 238 239 236 233 232 231 230 228 228 227 225 222 222 222 222 224 224 223 222 221
35 105 141 110 139 170 172 172 168 163 200 255 277 287 256 228 187 158 195 248 287 285 295 295 260 260 284 293 287 284 295 321 334 298 279 275 270 259 244 236 238 237 237 237 235 234 232 231 230 230 231 231 230 229 229 229 230 231 234 235 236 236 235 235 235 233 231 231 232 232 230 228 227 228 228 228 233 237 236 234 232 230 230 231 231 230 227 223 221 221 221 220 221 221 221 221 219
159 158 182 197 98 112 186 196 136 144 169 212 256 272 261 238 150 159 201 222 220 221 175 93 199 215 236 267 272 267 300 326 320 304 290 280 276 268 253 244 243 241 240 237 236 237 236 235 234 233 233 231 230 230 229 230 231 231 233 235 235 235 234 235 235 233 232 232 233 233 231 228 226 226 226 227 230 231 230 230 231 233 234 235 235 234 229 223 220 221 220 218 219 218 218 219 217
176 180 191 189 164 133 163 239 250 145 177 189 183 265 273 241 146 171 193 184 185 173 124 62 285 283 290 303 310 278 348 308 287 285 284 271 268 263 251 245 242 237 234 233 236 238 238 237 237 236 235 235 233 232 231 232 232 232 234 235 236 235 235 234 234 234 233 233 232 231 230 228 225 226 227 227 227 225 225 228 231 235 236 236 236 235 230 223 219 219 219 217 217 217 216 215 214